Location: Colonia Mina de C?rbuni
(46.1667°N, 22.7167°E)
Time: 16:59:49
(UTC+00:00)

SJ-6B - Pass Details

Date: 04 February 2023
Orbit: 501 x 570 km, 97.5° (Epoch: 29 March)

Event Time Altitude Azimuth Distance (km) Brightness Sun altitude
Exits shadow 17:43:01 23° 8° (N) 1,193 4.4 -21.9°
Drops below altitude 10° 17:44:43 10° 357° (N) 1,850 5.5 -22.2°
Sets 17:46:56 0° 353° (N) 2,761 6.5 -22.6°
